Showing default

YAOGAN-39 01C, 57731

Orbit data source: Space-Track

YAOGAN-39 01C, 57731 is a payload satellite owned by PLA GAD (CN) in LEO that was launched on Thu, 31 Aug 2023 UTC via a CHANG ZHENG 2D launch vehicle from the Xichang Space Center, China (XSC). Payload-class satellites include a variety of spacecraft equipped with specific instruments for various scientific and technological missions. These include communications satellites like Starlink; space stations such as the ISS; scientific satellites like the Hubble; Earth observation satellites from companies like Planet Labs, Umbra, and HawkEye 360; GPS; miniature CubeSats for education and research; and military/defense satellites.

Loading next visibility...
Identifier
57731, 2023-130E
Orbit
LEO
Country
Flag of CNCN / PRC
Related business
Manufacturer
DFH
Mission
Operational Defense Sigint
Bus & Motor
Unknown
Mass
~300 kg wet, ~300 kg dry
Launch date (UTC)
2023-08-31 (2 years ago)
Launch vehicle
CHANG ZHENG 2D
Launch site
Xichang Space Center, China (XSC)
Object type
Payload
Rocket body
Debris
Shape & HBR
Box + 2 Pan, 2.5 m
Radar Cross Section
11.063 m², Large (>1 m²)

Expand to show TLE details & history
Last TLE update: 17 hours ago

TLE from 17 hours ago
0 YAOGAN-39 01C
1 57731U 23130E   25293.99727620  .00011254  00000-0  56245-3 0  9993
2 57731  34.9935 203.0949 0006057 191.5582 168.4993 15.16675793119117
Epoch: 2025-10-20T23:56Z
TLE epoch observation values (Epoch: 2025-10-20T23:56:04.663Z)
Latitude
0.00002°
Longitude
174.38394°
Altitude
518.896 km
Speed
7.604 km/s
True Right ascension
13h 32m 22s
True Declination
0° 00' 00"
Sunlit
Object was in daylight at epoch
Visualization orbit readout
Latitude
Unknown
Longitude
Unknown
Altitude
Unknown
Speed
Unknown
Apparent Right ascension
Unknown
Apparent Declination
Unknown
Sunlit
N/A
Visualization observer readout
Local Sidereal Time
11:59:14
Azimuth
Unknown
Elevation
Unknown
Doppler factor
Unknown
Orbital elements
Apogee altitude
523.316 km
Perigee altitude
514.96 km
Semi-major axis
6,897.275 km
Eccentricity
0.00061
Inclination
34.9935°
RAAN
203.0949°
Arg. of periapsis
191.5582°
True anomaly
168.51313°
Mean anomaly
168.4993°
Eccentric anomaly
168.50622°
Mean motion
3.78902 °/min
Orbital period
95.01 mins
BSTAR
0.00056245
Loading maneuver chart data...
Computing Atmospheric mass density...
Loading historical data...
Loading historical data...
Loading historical data...
Loading historical data...
Loading historical data...
Loading historical data...
Loading historical data...
Other satellites on launch #130 in the year 2023 (2023-08-31 UTC)

Documentation

Showing up to 5 results
|